Rechercher aéroport 
image banner adimage banner adimage banner ad
image banner ad

CA47 - San Diego Police Headquarters

Situé à San Diego, United States

ICAO - CA47, IATA -

Données fournies par Airmate  

Information générale

Coordonnées: N32°42'55" W117°9'2"
Élévation : 162 feet MSL.
Variation magnétique : 13° East
Voir autres Aéroports à California

Données opérationnelles

Special qualification required
Heure actuelle UTC:
Heure actuelle locale:
Météo à : KSAN - San Diego Intl ( 4 km )
METAR: KSAN 270451Z 31005KT 9SM OVC009 22/18 A2998 RMK AO2 SLP150 CIG 008V011 T02170183 $
TAF: KSAN 270248Z 2703/2806 VRB05KT 4SM HZ OVC007 TEMPO 2713/2715 1 1/2SM BR OVC003 FM271800 27009KT P6SM BKN015 FM280300 30006KT 4SM BR BKN007
Voir NOTAMs / SUP AIP / TFR affectant cet aéroport [VIEW]
Fréquences de communication: [VIEW]

Pistes:

Coordonnées de l'aéroport

Adresse: San Diego United States

Vue satellite de CA47